Location: Newark
(48.0000°N, 67.0000°E)
Time: 17:56:39
(UTC+00:00)

A-11 Canister half - Pass Details

Date: 23 February 2020
Orbit: 1517 x 1683 km, 47.2° (Epoch: 04 April)

Event Time Altitude Azimuth Distance (km) Brightness Sun altitude
Rises 17:41:01 0° 291° (WNW) 4,812 12.3 -43.7°
Reaches altitude 10° 17:44:27 10° 283° (WNW) 3,799 11.5 -44.1°
Enters shadow 17:50:00 31° 254° (WSW) 2,500 10.1 -44.8°
